When you browse on this site, cookies collect data to enhance your experience and personalize the content and advertising you see.
Visit our Privacy Policy to learn more. By continuing to use the site, you agree to this use of cookies and data.
  • In Latvia
  • List of Countries
  • For 7 days
  • Water Temperature
  • Weather Map
  • Weather Widgets
  • user-avatar
    Login

    Hourly Weather Ganta

    Today, 19 September, Thursday

    Time Temperature Precipitation Wind Pressure Humidity
    00:00 +21°C° 0.1 mm 0 mps 724 mmHg 99%
    01:00 +21°C° 0.1 mm 0 mps 723 mmHg 99%
    02:00 +21°C° 0.1 mm 0 mps 723 mmHg 99%
    03:00 +21°C° 0.1 mm 0 mps 723 mmHg 99%
    04:00 +21°C° 0.1 mm 0 mps 723 mmHg 99%
    05:00 +21°C° 0 mm 0 mps 724 mmHg 98%
    06:00 +22°C° 0.1 mm 0 mps 724 mmHg 94%
    07:00 +23°C° 0.1 mm 0 mps 724 mmHg 91%
    08:00 +24°C° 0.1 mm 0 mps 724 mmHg 88%
    09:00 +25°C° 0 mm 0 mps 724 mmHg 80%
    10:00 +27°C° 0 mm 0 mps 724 mmHg 73%
    11:00 +31°C° 0 mm 1 mps 724 mmHg 65%
    12:00 +31°C° 0.2 mm 1 mps 723 mmHg 65%
    13:00 +31°C° 0.2 mm 1 mps 722 mmHg 65%
    14:00 +31°C° 0.2 mm 1 mps 721 mmHg 65%
    15:00 +30°C° 1.6 mm 1 mps 722 mmHg 73%
    16:00 +26°C° 1.6 mm 0 mps 722 mmHg 82%
    17:00 +25°C° 1.6 mm 0 mps 722 mmHg 91%
    18:00 +26°C° 2.7 mm 1 mps 723 mmHg 93%
    19:00 +25°C° 2.7 mm 1 mps 723 mmHg 95%
    20:00 +24°C° 2.7 mm 1 mps 724 mmHg 96%
    21:00 +24°C° 1.5 mm 1 mps 724 mmHg 97%
    22:00 +23°C° 1.5 mm 1 mps 724 mmHg 98%
    23:00 +23°C° 1.5 mm 1 mps 724 mmHg 99%

    Tomorrow, 20 September, Friday

    Time Temperature Precipitation Wind Pressure Humidity
    00:00 +23°C° 0.2 mm 1 mps 724 mmHg 99%
    01:00 +23°C° 0.2 mm 1 mps 723 mmHg 99%
    02:00 +23°C° 0.2 mm 1 mps 723 mmHg 99%
    03:00 +23°C° 0 mm 1 mps 723 mmHg 99%
    04:00 +21°C° 0 mm 0 mps 724 mmHg 99%
    05:00 +21°C° 0 mm 0 mps 724 mmHg 99%
    06:00 +22°C° 0.1 mm 0 mps 724 mmHg 96%
    07:00 +25°C° 0.1 mm 1 mps 724 mmHg 94%
    08:00 +26°C° 0.1 mm 1 mps 724 mmHg 92%
    09:00 +27°C° 1.3 mm 1 mps 724 mmHg 89%
    10:00 +26°C° 1.3 mm 0 mps 724 mmHg 87%
    11:00 +27°C° 1.3 mm 0 mps 723 mmHg 84%
    12:00 +27°C° 2.2 mm 0 mps 723 mmHg 86%
    13:00 +27°C° 2.2 mm 0 mps 722 mmHg 87%
    14:00 +27°C° 2.2 mm 0 mps 721 mmHg 88%
    15:00 +28°C° 1.9 mm 1 mps 721 mmHg 91%
    16:00 +26°C° 1.9 mm 1 mps 722 mmHg 93%
    17:00 +25°C° 1.9 mm 1 mps 722 mmHg 96%
    18:00 +25°C° 1.5 mm 1 mps 723 mmHg 97%
    19:00 +24°C° 1.5 mm 1 mps 723 mmHg 98%
    20:00 +24°C° 1.5 mm 1 mps 724 mmHg 99%
    21:00 +24°C° 1.8 mm 1 mps 724 mmHg 99%
    22:00 +23°C° 1.8 mm 1 mps 724 mmHg 99%
    23:00 +23°C° 1.8 mm 1 mps 724 mmHg 99%

    Day after tomorrow, 21 September, Saturday

    Time Temperature Precipitation Wind Pressure Humidity
    00:00 +23°C° 0.6 mm 1 mps 724 mmHg 99%
    01:00 +23°C° 0.6 mm 1 mps 723 mmHg 99%
    02:00 +23°C° 0.6 mm 1 mps 723 mmHg 99%
    03:00 +23°C° 0.4 mm 1 mps 723 mmHg 99%
    04:00 +23°C° 0.4 mm 1 mps 723 mmHg 99%
    05:00 +21°C° 0.4 mm 0 mps 724 mmHg 99%
    06:00 +23°C° 0.1 mm 1 mps 724 mmHg 99%
    07:00 +24°C° 0.1 mm 1 mps 725 mmHg 98%
    08:00 +24°C° 0.1 mm 1 mps 725 mmHg 97%
    09:00 +25°C° 0.4 mm 1 mps 725 mmHg 90%
    10:00 +27°C° 0.4 mm 1 mps 724 mmHg 84%
    11:00 +28°C° 0.4 mm 1 mps 724 mmHg 77%
    12:00 +28°C° 1.7 mm 1 mps 723 mmHg 81%
    13:00 +28°C° 1.7 mm 1 mps 722 mmHg 85%
    14:00 +28°C° 1.7 mm 1 mps 722 mmHg 89%
    15:00 +27°C° 1.3 mm 1 mps 722 mmHg 91%
    16:00 +24°C° 1.3 mm 0 mps 722 mmHg 93%
    17:00 +23°C° 1.3 mm 0 mps 722 mmHg 95%
    18:00 +23°C° 0.4 mm 0 mps 723 mmHg 96%
    19:00 +22°C° 0.4 mm 0 mps 724 mmHg 97%
    20:00 +24°C° 0.4 mm 1 mps 724 mmHg 97%
    21:00 +23°C° 0.1 mm 1 mps 724 mmHg 98%
    22:00 +23°C° 0.1 mm 1 mps 724 mmHg 98%
    23:00 +23°C° 0.1 mm 1 mps 724 mmHg 99%

    22 September, Sunday

    Time Temperature Precipitation Wind Pressure Humidity
    00:00 +23°C° 0.1 mm 1 mps 724 mmHg 99%
    01:00 +23°C° 0.1 mm 1 mps 724 mmHg 99%
    02:00 +23°C° 0.1 mm 1 mps 723 mmHg 99%
    03:00 +23°C° 0.1 mm 1 mps 724 mmHg 99%
    04:00 +23°C° 0.1 mm 1 mps 724 mmHg 99%
    05:00 +23°C° 0.1 mm 1 mps 724 mmHg 99%
    06:00 +23°C° 0 mm 1 mps 724 mmHg 97%
    07:00 +22°C° 0 mm 0 mps 725 mmHg 96%
    08:00 +22°C° 0 mm 0 mps 725 mmHg 94%
    09:00 +24°C° 0.2 mm 0 mps 724 mmHg 86%
    10:00 +26°C° 0.2 mm 0 mps 724 mmHg 77%
    11:00 +28°C° 0.2 mm 0 mps 724 mmHg 69%
    12:00 +28°C° 1.3 mm 0 mps 723 mmHg 74%
    13:00 +27°C° 1.3 mm 0 mps 723 mmHg 78%
    14:00 +27°C° 1.3 mm 0 mps 722 mmHg 83%
    15:00 +26°C° 1.4 mm 0 mps 722 mmHg 87%
    16:00 +25°C° 1.4 mm 0 mps 722 mmHg 91%
    17:00 +26°C° 1.4 mm 1 mps 722 mmHg 96%
    18:00 +25°C° 1 mm 1 mps 723 mmHg 96%
    19:00 +24°C° 1 mm 1 mps 723 mmHg 97%
    20:00 +23°C° 1 mm 1 mps 724 mmHg 98%
    21:00 +23°C° 0.1 mm 1 mps 724 mmHg 99%
    22:00 +23°C° 0.1 mm 1 mps 724 mmHg 99%
    23:00 +23°C° 0.1 mm 1 mps 725 mmHg 99%

    23 September, Monday

    Time Temperature Precipitation Wind Pressure Humidity
    00:00 +23°C° 0 mm 1 mps 724 mmHg 99%
    01:00 +23°C° 0 mm 1 mps 724 mmHg 99%
    02:00 +23°C° 0 mm 1 mps 724 mmHg 99%
    03:00 +23°C° 0 mm 1 mps 724 mmHg 99%
    04:00 +23°C° 0 mm 1 mps 724 mmHg 99%
    05:00 +23°C° 0 mm 1 mps 724 mmHg 99%
    06:00 +21°C° 0 mm 0 mps 725 mmHg 98%
    07:00 +21°C° 0 mm 0 mps 725 mmHg 97%
    08:00 +22°C° 0 mm 0 mps 725 mmHg 96%
    09:00 +26°C° 0 mm 1 mps 725 mmHg 85%
    10:00 +28°C° 0 mm 1 mps 725 mmHg 75%
    11:00 +30°C° 0 mm 1 mps 725 mmHg 64%
    12:00 +30°C° 0.1 mm 1 mps 724 mmHg 64%
    13:00 +31°C° 0.1 mm 1 mps 723 mmHg 63%
    14:00 +29°C° 0.1 mm 0 mps 723 mmHg 63%
    15:00 +28°C° 0.1 mm 0 mps 723 mmHg 69%
    16:00 +27°C° 0.1 mm 0 mps 723 mmHg 74%
    17:00 +26°C° 0.1 mm 0 mps 723 mmHg 80%
    18:00 +25°C° 0 mm 0 mps 723 mmHg 84%
    19:00 +23°C° 0 mm 0 mps 724 mmHg 88%
    20:00 +22°C° 0 mm 0 mps 724 mmHg 91%
    21:00 +24°C° 0.2 mm 1 mps 724 mmHg 93%
    22:00 +24°C° 0.2 mm 1 mps 724 mmHg 96%
    23:00 +23°C° 0.2 mm 1 mps 724 mmHg 98%

    24 September, Tuesday

    Time Temperature Precipitation Wind Pressure Humidity
    00:00 +23°C° 0.3 mm 1 mps 724 mmHg 98%
    01:00 +23°C° 0.3 mm 1 mps 724 mmHg 98%
    02:00 +24°C° 0.3 mm 1 mps 724 mmHg 98%
    03:00 +24°C° 0 mm 1 mps 724 mmHg 98%
    04:00 +23°C° 0 mm 1 mps 724 mmHg 98%
    05:00 +23°C° 0 mm 1 mps 724 mmHg 98%
    06:00 +24°C° 0 mm 1 mps 725 mmHg 95%
    07:00 +25°C° 0 mm 1 mps 725 mmHg 92%
    08:00 +26°C° 0 mm 1 mps 725 mmHg 89%
    09:00 +28°C° 0.1 mm 1 mps 725 mmHg 80%
    10:00 +30°C° 0.1 mm 1 mps 724 mmHg 71%
    11:00 +31°C° 0.1 mm 1 mps 724 mmHg 63%
    12:00 +31°C° 1.2 mm 1 mps 723 mmHg 64%
    13:00 +30°C° 1.2 mm 0 mps 723 mmHg 65%
    14:00 +30°C° 1.2 mm 0 mps 722 mmHg 66%
    15:00 +28°C° 0.7 mm 0 mps 722 mmHg 74%
    16:00 +26°C° 0.7 mm 0 mps 722 mmHg 83%
    17:00 +25°C° 0.7 mm 0 mps 722 mmHg 91%
    18:00 +24°C° 1.6 mm 0 mps 723 mmHg 93%
    19:00 +25°C° 1.6 mm 1 mps 723 mmHg 95%
    20:00 +24°C° 1.6 mm 1 mps 724 mmHg 97%
    21:00 +23°C° 3.7 mm 1 mps 724 mmHg 97%
    22:00 +23°C° 3.7 mm 1 mps 724 mmHg 98%
    23:00 +23°C° 3.7 mm 1 mps 724 mmHg 98%
    Show more